Regional Weather Roundup
Issued by NWS Bismarck, ND

Home | Current Version | Previous Version | Graphics & Text | Print | Product List | Glossary On
Versions: 1 2 3 4 5 6 7 8 9 10 11 12 13 14 15 16 17 18 19 20 21 22 23 24 25 26 27 28 29 30 31 32 33 34 35 36 37 38 39 40 41 42 43 44 45 46 47 48 49 50
000
ASUS43 KBIS 270910
RWRBIS

NWR BROADCAST TEXT
NATIONAL WEATHER SERVICE BISMARCK ND
400 AM CDT FRI MAY 27 2016

NOTE: "FAIR" INDICATES FEW OR NO CLOUDS BELOW 12,000 FEET WITH NO
SIGNIFICANT WEATHER AND/OR OBSTRUCTIONS TO VISIBILITY.


CITY           SKY/WX    TMP DP  RH WIND       PRES   REMARKS
WILLISTON      PTCLDY    48  46  93 NE7       29.87R
MINOT          CLOUDY    57  54  89 W5        29.82S
MINOT AFB      CLOUDY    54  53  98 W1        29.82S
BISMARCK       CLEAR     48  46  93 CALM      29.83S
DICKINSON      CLEAR     39  37  92 W5        29.83F
GARRISON         N/A     52  50  93 NW5       29.84S
HETTINGER ARPT CLEAR     34  33  96 W3        29.87R
JAMESTOWN      CLEAR     52  52 100 CALM      29.79F
BEACH          PTSUNNY   41  41 100 S3        29.89R
CARRINGTON     FAIR      50  48  93 CALM      29.84S FOG
HAZEN          FAIR      46  46 100 CALM      29.87S
LINTON           N/A     45  45 100 CALM        N/A
MANDAN         FAIR      46  46 100 NW3       29.84S
OAKES            N/A    N/A N/A N/A MISG        N/A
RUGBY          CLOUDY    54  54 100 NW3       29.82S FOG
STANLEY        CLOUDY    50  50 100 CALM      29.87S
WATFORD CITY   PTSUNNY   41  41 100 CALM      29.87R FOG
$$

CITY           SKY/WX    TMP DP  RH WIND       PRES   REMARKS
GRAND FORKS    CLOUDY    54  52  93 NW5       29.78F
GRAND FORKS AF CLOUDY    50  50 100 NW3       29.79F
DEVILS LAKE    PTCLDY    49  48  97 CALM      29.82S FOG
FARGO          CLEAR     57  53  86 E9        29.76F
CAVALIER       FAIR      52  52 100 W6        29.80R
GRAFTON        FAIR      50  50 100 SW5       29.82R
GWINNER        FAIR      55  54  94 SW5       29.77S
LANGDON        CLOUDY    52  52 100 SW7       29.81S
ROLLA          CLOUDY    54  54 100 W7        29.82F
WALHALLA       FAIR      52  52 100 CALM      29.80S
$$

CITY           SKY/WX    TMP DP  RH WIND       PRES   REMARKS
ABERDEEN       MOCLDY    62  52  69 CALM      29.75F
MOBRIDGE       CLEAR     51  47  86 N8        29.78F
BUFFALO          N/A     47  42  83 NW3       29.80S
RAPID CITY     MOCLDY    50  42  74 W7        29.86F
GLASGOW        PTCLDY    48  46  93 NE8       29.85F
SIDNEY         CLEAR     49  47  93 N5        29.87R
WOLF POINT     PTCLDY    49  46  90 CALM      29.86S
GLENDIVE       MOCLDY    48  46  93 E3        29.89R
MILES CITY     CLOUDY    51  47  86 W9        29.86S
BAKER          CLEAR     42  39  89 CALM      29.87R
$$

CITY           SKY/WX    TMP DP  RH WIND       PRES   REMARKS
BILLINGS       MOCLDY    47  43  86 S8        29.91S
GREAT FALLS    CLOUDY    45  42  89 E3        29.89F
REGINA         PTCLDY    52  48  87 NW10      29.87F
ESTEVAN        MOCLDY    52  50  93 W7        29.85R
$$




USA.gov is the U.S. government's official web portal to all federal, state and local government web resources and services.